342  
ASUS42 KTAE 161616  
RWRTAE  
RWRTAE  
NORTH FLORIDA/SOUTH ALABAMA/SOUTHWEST GEORGIA WEATHER ROUNDUP  
NATIONAL WEATHER SERVICE TALLAHASSEE FLORIDA  
1200 PM EDT TUE JUL 16 2019  
 
NOTE: "FAIR" INDICATES FEW OR NO CLOUDS BELOW 12,000 FEET WITH NO  
SIGNIFICANT WEATHER AND/OR S TO VISIBILITY
.  
 
!FLZ017-115-028-034-025-161700   
..NORTH FLORIDA
 
 
 
CITY SKY/WX TMP DP RH WIND PRES REMARKS
 
TALL INTL ARPT FAIR 91 73 55 SW5 30.16R HX 99  
FSU LOVE BLDG N/A 90 70 51 SE5 N/A HX 95  
APALACHICOLA FAIR 89 78 70 SE9 30.15R HX 103  
PERRY FAIR 93 73 52 NE6 30.16F HX 102  
CROSS CITY FAIR 90 76 62 W3 30.16S HX 102  
JACKSONVILLE PTSUNNY 92 73 53 W7 30.13S HX 100  

 
 
!FLZ112-006-005-002-011-161700   
..FLORIDA PANHANDLE
 
 
 
CITY SKY/WX TMP DP RH WIND PRES REMARKS
 
MARIANNA FAIR 87 78 74 VRB5 30.15S HX 100  
BONIFAY FAIR 88 76 67 VRB5 30.16S HX 99  
PANAMA CITY NW PTSUNNY 89 74 60 S7 30.15R HX 98  
TYNDALL AFB FAIR 89 74 60 S7 30.14S HX 97  
TYND DRONE APT FAIR 92 75 57 S7 30.16R HX 103  
DE FUNIAK SPR FAIR 88 74 64 S6 30.17S HX 96  
EGLIN AFB FAIR 88 76 67 S5 30.15R HX 98  
DESTIN FAIR 87 77 72 VRB3 30.15R HX 99  
HURLBURT LGT RAIN 88 77 70 S3 30.14R HX 100  
CRESTVIEW FAIR 90 71 53 S12 30.16S HX 96  
PENSACOLA PTSUNNY 89 78 70 S10 30.14S HX 103  

 
 
!ALZ063-066-161700   
..SOUTH ALABAMA
 
 
 
CITY SKY/WX TMP DP RH WIND PRES REMARKS
 
DOTHAN FAIR 89 70 53 W6 30.19F HX 94  
OZARK CAIRNS FAIR 88 74 62 S3 30.16S HX 97  
FT RUCKER HELI FAIR 89 76 65 S7 30.15S HX 99  
RUCKER HELI 3 FAIR 87 74 64 MISG 30.15F HX 95  
RUCKER HELI 2 FAIR 87 74 65 SW7 30.15S HX 96  
FLORALA APT FAIR 90 71 53 S10 30.17S HX 96  
ANDALUSIA FAIR 92 71 50 SW8 30.15S HX 98  
TROY FAIR 87 72 60 VRB3 30.17S HX 93  
EUFALA NOT AVBL  
MOBILE PTSUNNY 89 77 67 S9 30.15S HX 101  

 
 
!GAZ120>161-161700   
..SOUTHWEST AND SOUTH CENTRAL GEORGIA
 
 
 
CITY SKY/WX TMP DP RH WIND PRES REMARKS
 
THOMASVILLE FAIR 90 73 58 NW5 30.18S HX 98  
BAINBRIDGE NOT AVBL  
MOODY AFB FAIR 90 76 63 CALM 30.15S HX 101  
VALDOSTA FAIR 92 74 55 VRB3 30.16S HX 101  
MOULTRIE FAIR 90 70 51 CALM 30.18S HX 95  
BLAKELY FAIR 86 68 54 S3 30.17S  
ALBANY FAIR 92 67 43 W6 30.18R HX 95  
TIFTON FAIR N/A N/A N/A CALM 30.16  
FITZGERALD FAIR 93 74 53 CALM 30.19S HX 103  
CORDELE FAIR 90 70 51 N5 30.17S HX 95  
AMERICUS FAIR 95 64 36 SW8 30.18F HX 97  
HOMERVILLE FAIR 91 70 49 CALM 30.16S HX 97  

 
 
!GMZ750-755-770-775-161700   
..COASTAL AND BUOY OBS
 
 
 
STATION/POSITION TIME TEMP WIND PRES VSBY WAVE
 
AIR SEA DIR/SP/G HT/PER  
(UTC) (F) (DEG/KT/KT) (MB) (MI) (FT/S)  
KEATON BEACH 1600 87 240/ 5/ 6 1021.2F  
CEDAR KEY 1600 85 200/ 5/ 6 1021.5R  
C TOWER 1600 85 140/ 4/ 5 1021.2S  
APALACHICOLA BUO 1600 85 110/ 4/ 6 1021.2  
PANAMA CITY BUOY 1550 87 85 CALM / 2 1020.8R 2/ 7  
MOBILE BUOY 1600 83 83 150/ 8/ 10 1021.0  
ORANGE BCH AL BU 1600 84 85 180/ 6/ 10 1021.7  

 
 
 
CLICK HERE TO GO TO PREVIOUS BULLETINS.

The Nexlab FL Page
The Nexlab GA Page
The Nexlab AL Page Main Text Page